#timestamp,LO_Frequency,Hit,Temp,Hum 
1480309215.1,286046953.7,N,0.0,0.0
1480309216.0,286046953.7,N,0.0,0.0
1480309235.8,286046956.4,N,0.0,0.0
1480309255.6,286046953.7,N,0.0,0.0
1480309275.5,286046954.1,N,0.0,0.0
1480309295.3,286046952.1,N,0.0,0.0
1480309315.2,286046952.4,N,0.0,0.0
1480309335.9,286046950.5,N,0.0,0.0
1480309355.7,286046950.2,N,0.0,0.0
1480309375.6,286046950.3,N,0.0,0.0
1480309395.4,286046951.3,N,0.0,0.0
1480309415.2,286046951.5,N,0.0,0.0
1480309435.1,286046948.6,N,0.0,0.0
1480309436.0,286046948.6,N,0.0,0.0
1480309455.8,286046951.2,N,0.0,0.0
1480309475.7,286046951.6,N,0.0,0.0
1480309495.5,286046951.4,N,0.0,0.0
1480309515.3,286046948.5,N,0.0,0.0
1480309535.2,286046949.8,N,0.0,0.0
1480309555.0,286046947.0,N,0.0,0.0
1480309555.9,286046947.0,N,0.0,0.0
1480309575.8,286046946.9,N,0.0,0.0
1480309595.6,286046949.6,N,0.0,0.0
1480309615.4,286046949.5,N,0.0,0.0
1480309635.3,286046949.9,N,0.0,0.0
1480309655.1,286046949.8,N,0.0,0.0
1480309675.8,286046947.3,N,0.0,0.0
1480309695.7,286046947.7,N,0.0,0.0
1480309715.5,286046948.1,N,0.0,0.0
1480309735.4,286046948.3,N,0.0,0.0
1480309755.2,286046946.2,N,0.0,0.0
1480309775.0,286046947.4,N,0.0,0.0
1480309775.9,286046947.4,N,0.0,0.0
1480309795.8,286046950.7,N,0.0,0.0
1480309815.6,286046950.7,N,0.0,0.0
1480309835.4,286046952.8,N,0.0,0.0
1480309855.3,286046955.3,N,0.0,0.0
1480309875.1,286046961.2,N,0.0,0.0
1480309895.9,286046960.3,N,0.0,0.0
1480309915.7,286046961.1,N,0.0,0.0
1480309935.5,286046959.0,N,0.0,0.0
1480309955.4,286046957.3,N,0.0,0.0
1480309975.2,286046955.1,N,0.0,0.0
1480309995.0,286046953.4,N,0.0,0.0
1480309996.0,286046953.4,N,0.0,0.0
1480310015.8,286046951.7,N,0.0,0.0
1480310035.6,286046953.1,N,0.0,0.0
1480310055.5,286046950.9,N,0.0,0.0
1480310075.3,286046950.3,N,0.0,0.0
1480310095.1,286046951.0,N,0.0,0.0
1480310115.9,286046948.6,N,0.0,0.0
1480310135.7,286046949.0,N,0.0,0.0
1480310155.6,286046949.0,N,0.0,0.0
1480310175.4,286046949.3,N,0.0,0.0
1480310195.2,286046950.0,N,0.0,0.0
1480310215.1,286046947.2,N,0.0,0.0
1480310216.0,286046947.2,N,0.0,0.0
1480310235.8,286046948.1,N,0.0,0.0
1480310255.6,286046948.0,N,0.0,0.0
1480310275.5,286046948.4,N,0.0,0.0
1480310295.3,286046948.4,N,0.0,0.0
1480310315.2,286046946.0,N,0.0,0.0
1480310335.9,286046946.2,N,0.0,0.0
1480310355.7,286046946.1,N,0.0,0.0
1480310375.6,286046946.5,N,0.0,0.0
1480310395.4,286046946.8,N,0.0,0.0
1480310415.2,286046944.3,N,0.0,0.0
1480310435.1,286046944.8,N,0.0,0.0
1480310436.0,286046944.8,N,0.0,0.0
1480310455.8,286046942.2,N,0.0,0.0
1480310475.7,286046945.2,N,0.0,0.0
1480310495.5,286046943.0,N,0.0,0.0
1480310515.3,286046943.1,N,0.0,0.0
1480310535.2,286046943.3,N,0.0,0.0
1480310555.0,286046943.4,N,0.0,0.0
1480310555.9,286046943.4,N,0.0,0.0
1480310575.8,286046943.4,N,0.0,0.0
1480310595.6,286046943.6,N,0.0,0.0
1480310615.4,286046941.3,N,0.0,0.0
1480310635.3,286046941.6,N,0.0,0.0
1480310655.1,286046941.9,N,0.0,0.0
1480310675.8,286046939.1,N,0.0,0.0
1480310695.7,286046939.7,N,0.0,0.0
1480310715.5,286046940.2,N,0.0,0.0
1480310735.4,286046940.1,N,0.0,0.0
1480310755.2,286046940.3,N,0.0,0.0
1480310775.0,286046938.0,N,0.0,0.0
1480310775.9,286046938.0,N,0.0,0.0
1480310795.8,286046938.5,N,0.0,0.0
1480310815.6,286046938.5,N,0.0,0.0
1480310835.5,286046938.3,N,0.0,0.0
1480310855.3,286046936.1,N,0.0,0.0
1480310875.1,286046936.5,N,0.0,0.0
1480310895.9,286046936.7,N,0.0,0.0
1480310915.7,286046936.8,N,0.0,0.0
1480310935.5,286046934.4,N,0.0,0.0
1480310955.4,286046934.4,N,0.0,0.0
1480310975.2,286046935.1,N,0.0,0.0
1480310995.1,286046935.0,N,0.0,0.0
1480310996.0,286046935.0,N,0.0,0.0
1480311015.8,286046932.6,N,0.0,0.0
1480311035.6,286046932.6,N,0.0,0.0
1480311055.5,286046932.9,N,0.0,0.0
1480311075.3,286046932.6,N,0.0,0.0
1480311095.1,286046932.9,N,0.0,0.0
1480311115.9,286046933.8,N,0.0,0.0
1480311135.7,286046933.9,N,0.0,0.0
1480311155.6,286046933.9,N,0.0,0.0
1480311175.4,286046933.6,N,0.0,0.0
1480311195.2,286046933.9,N,0.0,0.0
1480311215.1,286046933.6,N,0.0,0.0
1480311216.0,286046933.6,N,0.0,0.0
1480311235.8,286046933.7,N,0.0,0.0
1480311255.7,286046933.9,N,0.0,0.0
1480311275.5,286046931.3,N,0.0,0.0
1480311295.3,286046931.1,N,0.0,0.0
1480311315.2,286046931.6,N,0.0,0.0
1480311335.0,286046932.2,N,0.0,0.0
1480311335.9,286046932.2,N,0.0,0.0
1480311355.8,286046931.9,N,0.0,0.0
1480311375.6,286046929.5,N,0.0,0.0
1480311395.4,286046929.7,N,0.0,0.0
1480311415.3,286046929.5,N,0.0,0.0
1480311435.1,286046930.0,N,0.0,0.0
1480311455.8,286046930.6,N,0.0,0.0
1480311475.7,286046927.8,N,0.0,0.0
1480311495.5,286046927.8,N,0.0,0.0
1480311515.4,286046927.8,N,0.0,0.0
1480311535.2,286046927.9,N,0.0,0.0
1480311555.0,286046928.9,N,0.0,0.0
1480311555.9,286046928.9,N,0.0,0.0
1480311575.8,286046928.9,N,0.0,0.0
1480311595.6,286046928.6,N,0.0,0.0
1480311615.5,286046928.6,N,0.0,0.0
1480311635.3,286046928.6,N,0.0,0.0
1480311655.1,286046928.7,N,0.0,0.0
1480311675.9,286046928.7,N,0.0,0.0
1480311695.7,286046926.2,N,0.0,0.0
1480311715.5,286046926.3,N,0.0,0.0
1480311735.4,286046926.3,N,0.0,0.0
1480311755.2,286046926.7,N,0.0,0.0
1480311775.1,286046926.9,N,0.0,0.0
1480311776.0,286046926.9,N,0.0,0.0
1480311795.8,286046927.6,N,0.0,0.0
1480311815.6,286046924.9,N,0.0,0.0
1480311835.5,286046925.4,N,0.0,0.0
1480311855.3,286046925.4,N,0.0,0.0
1480311875.1,286046925.7,N,0.0,0.0
1480311895.9,286046925.9,N,0.0,0.0
1480311915.7,286046924.8,N,0.0,0.0
1480311935.6,286046924.9,N,0.0,0.0
1480311955.4,286046924.9,N,0.0,0.0
1480311975.2,286046925.4,N,0.0,0.0
1480311995.1,286046925.5,N,0.0,0.0
1480311996.0,286046925.5,N,0.0,0.0
1480312015.8,286046925.5,N,0.0,0.0
1480312035.7,286046925.6,N,0.0,0.0
1480312055.5,286046923.1,N,0.0,0.0
1480312075.3,286046924.2,N,0.0,0.0
1480312095.2,286046923.6,N,0.0,0.0
1480312115.9,286046924.0,N,0.0,0.0
1480312135.7,286046924.0,N,0.0,0.0
1480312155.6,286046921.7,N,0.0,0.0
1480312175.4,286046921.7,N,0.0,0.0
1480312195.3,286046923.8,N,0.0,0.0
1480312215.1,286046923.8,N,0.0,0.0
1480312216.0,286046923.8,N,0.0,0.0
1480312235.8,286046923.9,N,0.0,0.0
1480312255.7,286046921.9,N,0.0,0.0
1480312275.5,286046922.1,N,0.0,0.0
1480312295.4,286046922.0,N,0.0,0.0
1480312315.2,286046922.8,N,0.0,0.0
1480312335.0,286046919.7,N,0.0,0.0
1480312335.9,286046919.7,N,0.0,0.0
1480312355.8,286046919.8,N,0.0,0.0
1480312375.6,286046922.8,N,0.0,0.0
1480312395.4,286046920.3,N,0.0,0.0
1480312415.3,286046920.9,N,0.0,0.0
1480312435.1,286046918.6,N,0.0,0.0
1480312455.9,286046918.5,N,0.0,0.0
1480312475.7,286046918.3,N,0.0,0.0
1480312495.5,286046918.3,N,0.0,0.0
1480312515.4,286046918.8,N,0.0,0.0
1480312535.2,286046918.3,N,0.0,0.0
1480312555.1,286046918.2,N,0.0,0.0
1480312556.0,286046918.2,N,0.0,0.0
1480312575.8,286046918.4,N,0.0,0.0
1480312595.6,286046919.1,N,0.0,0.0
1480312615.5,286046919.1,N,0.0,0.0
1480312635.3,286046919.2,N,0.0,0.0
1480312655.1,286046918.8,N,0.0,0.0
1480312675.9,286046918.4,N,0.0,0.0
1480312695.7,286046918.9,N,0.0,0.0
1480312715.6,286046918.6,N,0.0,0.0
1480312735.4,286046918.1,N,0.0,0.0
1480312755.2,286046918.3,N,0.0,0.0
1480312775.1,286046918.4,N,0.0,0.0
1480312776.0,286046918.4,N,0.0,0.0
1480312795.8,286046918.7,N,0.0,0.0
